| time (UTC) | temp C | wind direction | speed KPH | gust KPH | rain 1hr cm | rain 24hr cm | rain mn cm | humidity % | barometer mb |
| 20260503211004 | 17 | 196 | 20.9 | 37.0 | 0.00 | 0.00 | 0.00 | 47 | 1011.1 |
| 20260503205503 | 17 | 178 | 16.1 | 32.2 | 0.00 | 0.00 | 0.00 | 46 | 1011.5 |
| 20260503204503 | 17 | 177 | 17.7 | 38.6 | 0.00 | 0.00 | 0.00 | 46 | 1011.9 |
| 20260503204003 | 16 | 200 | 16.1 | 29.0 | 0.00 | 0.00 | 0.00 | 47 | 1012.0 |
| 20260503203504 | 16 | 188 | 11.3 | 32.2 | 0.00 | 0.00 | 0.00 | 46 | 1012.1 |
| 20260503203004 | 16 | 183 | 14.5 | 41.8 | 0.00 | 0.00 | 0.00 | 46 | 1012.1 |
| 20260503201504 | 16 | 184 | 16.1 | 32.2 | 0.00 | 0.00 | 0.00 | 47 | 1011.8 |
| 20260503201003 | 16 | 182 | 12.9 | 37.0 | 0.00 | 0.00 | 0.00 | 49 | 1011.8 |
| 20260503200503 | 16 | 167 | 14.5 | 37.0 | 0.00 | 0.00 | 0.00 | 46 | 1012.4 |
| 20260503195504 | 16 | 169 | 16.1 | 37.0 | 0.00 | 0.00 | 0.00 | 46 | 1013.3 |
| 20260503194005 | 16 | 197 | 19.3 | 32.2 | 0.00 | 0.00 | 0.00 | 46 | 1013.8 |
| 20260503191505 | 16 | 198 | 16.1 | 32.2 | 0.00 | 0.00 | 0.00 | 46 | 1014.4 |
| 20260503191004 | 16 | 213 | 17.7 | 29.0 | 0.00 | 0.00 | 0.00 | 46 | 1014.3 |
| 20260503190004 | 17 | 188 | 20.9 | 38.6 | 0.00 | 0.00 | 0.00 | 43 | 1014.1 |
| 20260503185504 | 17 | 189 | 19.3 | 32.2 | 0.00 | 0.00 | 0.00 | 43 | 1014.3 |
| 20260503184504 | 17 | 184 | 19.3 | 37.0 | 0.00 | 0.00 | 0.00 | 45 | 1014.3 |
| 20260503181505 | 17 | 201 | 16.1 | 32.2 | 0.00 | 0.00 | 0.00 | 46 | 1015.2 |
| 20260503181004 | 17 | 192 | 14.5 | 32.2 | 0.00 | 0.00 | 0.00 | 47 | 1015.2 |
| 20260503180504 | 17 | 215 | 16.1 | 35.4 | 0.00 | 0.00 | 0.00 | 49 | 1015.2 |
| 20260503180004 | 17 | 199 | 20.9 | 35.4 | 0.00 | 0.00 | 0.00 | 47 | 1015.3 |
| 20260503175004 | 17 | 205 | 19.3 | 37.0 | 0.00 | 0.00 | 0.00 | 50 | 1015.6 |
| 20260503174504 | 16 | 176 | 22.5 | 37.0 | 0.00 | 0.00 | 0.00 | 48 | 1015.7 |
| 20260503174004 | 16 | 198 | 19.3 | 35.4 | 0.00 | 0.00 | 0.00 | 50 | 1016.0 |
| 20260503172504 | 16 | 198 | 19.3 | 35.4 | 0.00 | 0.00 | 0.00 | 48 | 1016.5 |
| 20260503130504 | 10 | 193 | 9.7 | 20.9 | 0.00 | 0.00 | 0.00 | 70 | 1018.7 |
| 20260503081004 | 2 | 342 | 0.0 | 0.0 | 0.00 | 0.00 | 0.00 | 89 | 1018.5 |
| 20260503072504 | 2 | 342 | 0.0 | 0.0 | 0.00 | 0.00 | 0.00 | 89 | 1018.4 |
| 20260503055004 | 3 | 342 | 0.0 | 0.0 | 0.00 | 0.00 | 0.00 | 89 | 1018.9 |
| 20260503054504 | 3 | 342 | 0.0 | 0.0 | 0.00 | 0.00 | 0.00 | 89 | 1018.9 |
| 20260503054004 | 3 | 342 | 0.0 | 0.0 | 0.00 | 0.00 | 0.00 | 88 | 1018.9 |
| 20260503053504 | 3 | 342 | 0.0 | 0.0 | 0.00 | 0.00 | 0.00 | 88 | 1018.9 |
| 20260503053004 | 3 | 342 | 0.0 | 0.0 | 0.00 | 0.00 | 0.00 | 88 | 1018.9 |
| 20260503052504 | 3 | 342 | 0.0 | 0.0 | 0.00 | 0.00 | 0.00 | 87 | 1018.9 |
| 20260503052004 | 3 | 342 | 0.0 | 0.0 | 0.00 | 0.00 | 0.00 | 87 | 1018.8 |
| 20260503051004 | 3 | 342 | 0.0 | 0.0 | 0.00 | 0.00 | 0.00 | 87 | 1018.9 |
| 20260503050005 | 3 | 342 | 0.0 | 0.0 | 0.00 | 0.00 | 0.00 | 85 | 1018.8 |
| 20260503044504 | 3 | 342 | 0.0 | 0.0 | 0.00 | 0.00 | 0.00 | 84 | 1018.8 |
| 20260503043004 | 4 | 342 | 0.0 | 0.0 | 0.00 | 0.00 | 0.00 | 84 | 1018.8 |
| 20260503042504 | 4 | 342 | 0.0 | 0.0 | 0.00 | 0.00 | 0.00 | 84 | 1018.8 |
| 20260503042004 | 4 | 342 | 0.0 | 0.0 | 0.00 | 0.00 | 0.00 | 84 | 1018.8 |
| 20260503041004 | 4 | 342 | 0.0 | 0.0 | 0.00 | 0.00 | 0.00 | 84 | 1018.8 |
| 20260503040504 | 4 | 342 | 0.0 | 0.0 | 0.00 | 0.00 | 0.00 | 84 | 1018.8 |
| 20260503040003 | 4 | 342 | 0.0 | 0.0 | 0.00 | 0.00 | 0.00 | 83 | 1018.9 |
| 20260503034504 | 4 | 342 | 0.0 | 0.0 | 0.00 | 0.00 | 0.00 | 80 | 1019.0 |
| 20260503033004 | 5 | 342 | 0.0 | 0.0 | 0.00 | 0.00 | 0.00 | 76 | 1018.9 |
| 20260503032004 | 5 | 342 | 0.0 | 0.0 | 0.00 | 0.00 | 0.00 | 74 | 1018.9 |
| 20260503030504 | 5 | 342 | 0.0 | 0.0 | 0.00 | 0.00 | 0.00 | 74 | 1018.8 |
| 20260503030004 | 5 | 342 | 0.0 | 0.0 | 0.00 | 0.00 | 0.00 | 72 | 1018.8 |
| 20260503025504 | 5 | 342 | 0.0 | 0.0 | 0.00 | 0.00 | 0.00 | 72 | 1018.8 |
| 20260503025004 | 5 | 342 | 0.0 | 0.0 | 0.00 | 0.00 | 0.00 | 71 | 1018.8 |
| 20260503024004 | 6 | 342 | 0.0 | 0.0 | 0.00 | 0.00 | 0.00 | 71 | 1018.8 |
| 20260503023004 | 6 | 342 | 0.0 | 0.0 | 0.00 | 0.00 | 0.00 | 71 | 1018.8 |
| 20260503022004 | 6 | 342 | 0.0 | 0.0 | 0.00 | 0.00 | 0.00 | 67 | 1018.7 |
| 20260503021504 | 6 | 342 | 0.0 | 0.0 | 0.00 | 0.00 | 0.00 | 68 | 1018.7 |
| 20260503021004 | 6 | 342 | 0.0 | 0.0 | 0.00 | 0.00 | 0.00 | 68 | 1018.7 |
| 20260503020003 | 7 | 342 | 0.0 | 0.0 | 0.00 | 0.00 | 0.00 | 65 | 1018.6 |
| 20260503014004 | 7 | 342 | 0.0 | 0.0 | 0.00 | 0.00 | 0.00 | 64 | 1018.4 |
| 20260503011504 | 8 | 343 | 0.0 | 0.0 | 0.00 | 0.00 | 0.00 | 51 | 1018.1 |
| 20260503010004 | 10 | 343 | 0.0 | 0.0 | 0.00 | 0.00 | 0.00 | 50 | 1018.1 |
| 20260503005503 | 10 | 343 | 0.0 | 0.0 | 0.00 | 0.00 | 0.00 | 46 | 1018.1 |
| 20260503004505 | 10 | 343 | 0.0 | 0.0 | 0.00 | 0.00 | 0.00 | 44 | 1018.0 |
| 20260503003003 | 11 | 343 | 0.0 | 4.8 | 0.00 | 0.00 | 0.00 | 44 | 1018.0 |
| 20260503002504 | 11 | 343 | 0.0 | 4.8 | 0.00 | 0.00 | 0.00 | 38 | 1018.0 |
| 20260503002004 | 11 | 343 | 0.0 | 4.8 | 0.00 | 0.00 | 0.00 | 40 | 1018.0 |
| 20260503000503 | 11 | 10 | 3.2 | 8.0 | 0.00 | 0.00 | 0.00 | 37 | 1017.9 |
| 20260503000004 | 11 | 5 | 3.2 | 11.3 | 0.00 | 0.00 | 0.00 | 35 | 1017.9 |
| 20260502235504 | 12 | 337 | 4.8 | 11.3 | 0.00 | 0.00 | 0.00 | 34 | 1017.9 |
| 20260502234504 | 12 | 333 | 1.6 | 9.7 | 0.00 | 0.00 | 0.00 | 36 | 1017.9 |
| 20260502234004 | 12 | 356 | 1.6 | 9.7 | 0.00 | 0.00 | 0.00 | 34 | 1017.9 |
| 20260502233004 | 12 | 251 | 3.2 | 19.3 | 0.00 | 0.00 | 0.00 | 34 | 1017.9 |
| 20260502232504 | 12 | 332 | 4.8 | 19.3 | 0.00 | 0.00 | 0.00 | 35 | 1017.9 |
| 20260502230504 | 12 | 295 | 4.8 | 12.9 | 0.00 | 0.00 | 0.00 | 34 | 1017.9 |
| 20260502230004 | 12 | 323 | 1.6 | 19.3 | 0.00 | 0.00 | 0.00 | 34 | 1017.9 |
| 20260502225003 | 12 | 347 | 8.0 | 19.3 | 0.00 | 0.00 | 0.00 | 35 | 1017.9 |
| 20260502224504 | 12 | 8 | 3.2 | 19.3 | 0.00 | 0.00 | 0.00 | 33 | 1017.8 |
| 20260502224004 | 12 | 338 | 6.4 | 19.3 | 0.00 | 0.00 | 0.00 | 33 | 1017.7 |
| 20260502223504 | 12 | 315 | 3.2 | 14.5 | 0.00 | 0.00 | 0.00 | 32 | 1017.7 |
| 20260502223004 | 12 | 23 | 4.8 | 14.5 | 0.00 | 0.00 | 0.00 | 32 | 1017.7 |
| 20260502220004 | 13 | 329 | 3.2 | 14.5 | 0.00 | 0.00 | 0.00 | 37 | 1017.7 |
| 20260502215004 | 13 | 322 | 3.2 | 22.5 | 0.00 | 0.00 | 0.00 | 36 | 1017.8 |
| 20260502213503 | 12 | 337 | 4.8 | 25.7 | 0.00 | 0.00 | 0.00 | 32 | 1017.8 |
| 20260502213003 | 13 | 346 | 4.8 | 25.7 | 0.00 | 0.00 | 0.00 | 31 | 1017.8 |
| 20260502212004 | 13 | 359 | 1.6 | 14.5 | 0.00 | 0.00 | 0.00 | 32 | 1017.8 |